Khon Kaen, Thailand

4:33 AM ICT on August 29, 2016 (GMT +0700)
Khon Kaen

Weather History for VTUK - February, 2013

Change the Weather History Date:

Wednesday, February 13, 2013

  Actual Average Record
Temperature  
Mean Temperature 78 °F -  
Max Temperature 90 °F 93 °F - ()
Min Temperature 66 °F 69 °F - ()
Cooling Degree Days 13    
Growing Degree Days 28 (Base 50)    
Moisture  
Dew Point 62 °F    
Average Humidity 56    
Maximum Humidity 83    
Minimum Humidity 27    
Precipitation  
Precipitation 0.00 in 0.03 in - ()
Sea Level Pressure  
Sea Level Pressure 29.92 in    
Wind  
Wind Speed 5 mph ()    
Max Wind Speed 9 mph    
Max Gust Speed -    
Visibility 5.9 miles    
Events      
T = Trace of Precipitation, MM = Missing Value Source: Averaged Metar Reports

Daily Weather History Graph

Daily Weather History Graph

Search for Another Location

Airport or City:

Trip Planner

Search our weather history database for the weather conditions in past years. The results will help you decide how hot, cold, wet, or windy it might be!

Date:

Astronomy

Feb. 13, 2013 Rise Set
Actual Time 6:35 AM ICT 6:10 PM ICT
Civil Twilight 6:13 AM ICT 6:32 PM ICT
Nautical Twilight 5:47 AM ICT 6:58 PM ICT
Astronomical Twilight 5:22 AM ICT 7:23 PM ICT
Moon 8:24 AM ICT (2/13) 8:58 PM ICT (2/13)
Length of Visible Light 12h 19m
Length of Day
11h 35m
Waxing Crescent, 10% of the Moon is Illuminated
Feb 13
Waxing Crescent
Feb 18
First Quarter
Feb 26
Full
Mar 5
Last Quarter
Mar 12
New

Hourly Weather History & Observations

Time (ICT) Temp. Heat Index Dew Point Humidity Pressure Visibility Wind Dir Wind Speed Gust Speed Precip Events Conditions
1:00 AM 74 °F - 56 °F 44% 29.92 in 6 mi East 8.1 mph - -  
4:00 AM 69.8 °F - 60.8 °F 73% 29.92 in - ENE 6.9 mph - N/A   Clear
5:00 AM 68.0 °F - 60.8 °F 78% 29.92 in - NE 5.8 mph - N/A   Clear
6:00 AM 66.2 °F - 60.8 °F 83% 29.96 in - North 3.5 mph - N/A   Clear
7:00 AM 67 °F - 60 °F 72% 29.97 in 6 mi North 4.6 mph - -   Clear
7:00 AM 66.2 °F - 60.8 °F 83% 29.98 in - North 5.8 mph - N/A   Clear
8:00 AM 69.8 °F - 62.6 °F 78% 30.01 in - North 5.8 mph - N/A   Clear
9:00 AM 75.2 °F - 62.6 °F 65% 30.02 in - ENE 6.9 mph - N/A   Clear
10:00 AM 78.8 °F - 62.6 °F 57% 30.02 in - ENE 9.2 mph - N/A   Clear
11:00 AM 80.6 °F 81.8 °F 62.6 °F 54% 30.00 in - East 9.2 mph - N/A   Clear
12:00 PM 84.2 °F 85.0 °F 62.6 °F 48% 29.97 in - East 6.9 mph - N/A   Clear
1:00 PM 87 °F - 58 °F 27% 29.88 in 6 mi NE 5.8 mph - -   Clear
1:00 PM 86.0 °F 86.6 °F 62.6 °F 45% 29.93 in - Variable 4.6 mph - N/A   Clear
2:00 PM 87.8 °F 88.5 °F 62.6 °F 43% 29.89 in 6.2 mi Variable 4.6 mph - N/A   Partly Cloudy
3:00 PM 87.8 °F 88.5 °F 62.6 °F 43% 29.87 in 6.2 mi East 6.9 mph - N/A   Partly Cloudy
4:00 PM 89.6 °F 90.1 °F 62.6 °F 40% 29.85 in - North 4.6 mph - N/A   Clear
5:00 PM 87.8 °F 87.6 °F 60.8 °F 40% 29.84 in - NE 4.6 mph - N/A   Clear
6:00 PM 86.0 °F 86.6 °F 62.6 °F 45% 29.85 in 5.6 mi East 3.5 mph - N/A   Unknown
7:00 PM 84 °F - 64 °F 40% 29.84 in 6 mi North 2.3 mph - -   Haze
7:00 PM 82.4 °F 83.4 °F 62.6 °F 51% 29.86 in 5.6 mi North 2.3 mph - N/A   Unknown
8:00 PM 78.8 °F - 62.6 °F 57% 29.88 in 5.6 mi NNE 3.5 mph - N/A   Unknown